This demonstration page uses our WeatherBlox Daily Observations layout. Learn more.

39.51506, -84.39828

Hourly Observations for November 17, 2018

Temp ( °F °C ) Dew Point ( °F °C ) Humidity (%) Winds ( mph kmh ) Pressure ( in mb ) Visibility ( mi km ) Precip ( " mm )
12:15 am 00:15 Cloudy 38 3.2 34 1.1 86 86 W 5 7 30.21 1023 10 16.0934 0 0
12:35 am 00:35 Cloudy 38 3.2 33 0.8 84 84 SSW 3 6 30.21 1023 10 16.0934 0 0
12:55 am 00:55 Cloudy 38 3.2 33 0.7 84 84 SSW 5 7 30.21 1023 10 16.0934 0 0
1:15 am 01:15 Cloudy 37 3 34 0.9 86 86 W 6 9 30.24 1024 10 16.0934 0 0
1:35 am 01:35 Cloudy 37 3 33 0.7 85 85 WSW 5 7 30.24 1024 10 16.0934 0 0
1:55 am 01:55 Cloudy 37 3 33 0.7 85 85 SW 3 6 30.24 1024 10 16.0934 0 0
2:15 am 02:15 Cloudy 37 3 33 0.6 84 84 WSW 3 6 30.24 1024 10 16.0934 0 0
2:35 am 02:35 Cloudy 37 2.8 33 0.7 86 86 WSW 3 6 30.24 1024 7 11.26538 0 0
2:55 am 02:55 Cloudy 37 2.9 33 0.5 84 84 WSW 5 7 30.24 1024 7 11.26538 0 0
3:15 am 03:15 Cloudy 37 2.7 33 0.5 86 86 Calm 30.27 1025 10 16.0934 0 0
3:35 am 03:35 Cloudy 37 2.7 33 0.6 86 86 Calm 30.27 1025 10 16.0934 0 0
3:55 am 03:55 Cloudy 37 2.7 33 0.5 86 86 SW 3 6 30.27 1025 10 16.0934 0 0
4:15 am 04:15 Cloudy 37 2.7 33 0.5 86 86 SW 3 6 30.27 1025 10 16.0934 0 0
4:35 am 04:35 Cloudy 37 2.7 33 0.3 84 84 Calm 30.27 1025 10 16.0934 0 0
4:55 am 04:55 Cloudy 37 2.6 33 0.6 87 87 Calm 30.27 1025 10 16.0934 0 0
5:15 am 05:15 Cloudy 37 2.5 33 0.7 88 88 Calm 30.27 1025 10 16.0934 0 0
5:35 am 05:35 Cloudy 37 2.6 33 0.5 86 86 Calm 30.3 1026 10 16.0934 0 0
5:55 am 05:55 Cloudy 37 2.5 33 0.6 87 87 Calm 30.3 1026 10 16.0934 0 0
6:15 am 06:15 Cloudy 37 2.9 31 -0.6 78 78 Calm 30.3 1026 10 16.0934 0 0
6:35 am 06:35 Cloudy 37 2.9 30 -0.9 76 76 Calm 30.3 1026 10 16.0934 0 0
6:55 am 06:55 Cloudy 37 2.8 31 -0.8 77 77 Calm 30.3 1026 10 16.0934 0 0
7:15 am 07:15 Cloudy 37 2.6 32 0.2 84 84 Calm 30.3 1026 10 16.0934 0 0
7:35 am 07:35 Cloudy 37 2.7 32 -0.1 82 82 Calm 30.3 1026 7 11.26538 0 0
7:55 am 07:55 Cloudy with Mist and Fog 37 2.5 33 0.5 87 87 Calm 30.33 1027 7 11.26538 0 0
8:15 am 08:15 Cloudy with Mist and Fog 37 2.6 33 0.4 86 86 Calm 30.33 1027 7 11.26538 0 0
8:35 am 08:35 Cloudy 37 2.9 32 0 81 81 Calm 30.33 1027 7 11.26538 0 0
8:55 am 08:55 Cloudy 38 3.2 32 0.1 80 80 SE 3 6 30.33 1027 7 11.26538 0 0
9:15 am 09:15 Cloudy 38 3.4 31 -0.3 77 77 SE 5 7 30.3 1026 10 16.0934 0 0
9:35 am 09:35 Cloudy 39 3.8 32 -0.1 76 76 SE 5 7 30.33 1027 10 16.0934 0 0
9:55 am 09:55 Cloudy 39 4 32 0.2 77 77 SE 5 7 30.33 1027 10 16.0934 0 0
10:15 am 10:15 Cloudy 40 4.2 32 0.2 75 75 SSE 6 9 30.33 1027 10 16.0934 0 0
10:35 am 10:35 Cloudy 40 4.4 33 0.6 77 77 SE 7 11 30.33 1027 7 11.26538 0 0
10:55 am 10:55 Cloudy 40 4.6 33 0.7 76 76 SSE 8 13 30.33 1027 7 11.26538 0 0
11:15 am 11:15 Cloudy 40 4.7 33 0.8 76 76 S 5 7 30.33 1027 7 11.26538 0 0
11:35 am 11:35 Cloudy 41 5.1 33 0.8 74 74 S 7 11 30.33 1027 7 11.26538 0 0
11:55 am 11:55 Cloudy 42 5.4 34 1 74 74 SSW 8 13 30.3 1026 7 11.26538 0 0
12:15 pm 12:15 Cloudy 42 5.6 33 0.7 71 71 SSW 5 7 30.3 1026 10 16.0934 0 0
12:35 pm 12:35 Cloudy 42 5.8 34 0.9 71 71 S 7 11 30.3 1026 10 16.0934 0 0
12:55 pm 12:55 Mostly Cloudy 44 6.7 34 1 67 67 S 7 11 30.27 1025 10 16.0934 0 0
1:15 pm 13:15 Cloudy 43 6 33 0.7 69 69 SE 3 6 30.3 1026 7 11.26538 0 0
1:35 pm 13:35 Mostly Cloudy 44 6.7 34 0.9 67 67 WSW 3 6 30.27 1025 7 11.26538 0 0
1:55 pm 13:55 Partly Cloudy 44 6.8 34 1 67 67 Calm 30.24 1024 10 16.0934 0 0
2:15 pm 14:15 Sunny 44 6.4 33 0.7 67 67 SW 3 6 30.24 1024 10 16.0934 0 0
2:35 pm 14:35 Sunny 44 6.9 34 1.1 67 67 S 6 9 30.24 1024 7 11.26538 0 0
2:55 pm 14:55 Sunny 44 6.9 34 1.1 67 67 S 5 7 30.24 1024 7 11.26538 0 0
3:15 pm 15:15 Sunny 44 6.5 33 0.7 67 67 W 3 6 30.24 1024 10 16.0934 0 0
3:35 pm 15:35 Sunny 44 6.5 34 1 68 68 Calm 30.24 1024 7 11.26538 0 0
3:55 pm 15:55 Sunny 44 6.6 33 0.8 67 67 Calm 30.24 1024 10 16.0934 0 0
4:15 pm 16:15 Sunny 44 6.6 34 0.9 67 67 Calm 30.24 1024 7 11.26538 0 0
4:35 pm 16:35 Sunny 43 6.3 34 0.9 69 69 Calm 30.27 1025 7 11.26538 0 0
4:55 pm 16:55 Sunny 43 5.9 35 1.4 73 73 Calm 30.3 1026 7 11.26538 0 0
5:15 pm 17:15 Sunny 42 5.5 35 1.7 77 77 Calm 30.3 1026 7 11.26538 0 0
5:35 pm 17:35 Hazy 41 5 35 1.7 79 79 N 3 6 30.3 1026 7 11.26538 0 0
5:55 pm 17:55 Clear 40 4.3 36 2.1 86 86 N 3 6 30.3 1026 7 11.26538 0 0
6:15 pm 18:15 Clear with Mist and Fog 37 2.6 35 1.7 94 94 Calm 30.3 1026 5 8.0467 0 0
6:35 pm 18:35 Clear with Mist and Fog 37 2.8 35 1.9 94 94 Calm 30.3 1026 5 8.0467 0 0
6:55 pm 18:55 Clear with Mist and Fog 36 2.4 35 1.6 95 95 Calm 30.3 1026 4 6.43736 0 0
7:15 pm 19:15 Clear with Mist and Fog 36 2.2 35 1.5 95 95 Calm 30.3 1026 4 6.43736 0 0
7:35 pm 19:35 Clear with Mist and Fog 35 1.7 34 1.1 96 96 N 3 6 30.3 1026 4 6.43736 0 0
7:55 pm 19:55 Partly Cloudy with Mist and Fog 36 2.1 34 1.3 95 95 Calm 30.3 1026 5 8.0467 0 0
8:15 pm 20:15 Clear with Mist and Fog 36 2.1 34 1.2 94 94 N 5 7 30.3 1026 5 8.0467 0 0
8:35 pm 20:35 Clear with Mist and Fog 36 2.4 34 1.3 93 93 Calm 30.3 1026 7 11.26538 0 0
8:55 pm 20:55 Clear with Mist and Fog 36 2.1 34 1.1 93 93 N 3 6 30.3 1026 5 8.0467 0 0
9:15 pm 21:15 Clear with Mist and Fog 35 1.9 34 1.1 95 95 Calm 30.3 1026 5 8.0467 0 0
9:35 pm 21:35 Clear with Mist and Fog 36 2 34 1.3 95 95 Calm 30.3 1026 5 8.0467 0 0
9:55 pm 21:55 Clear with Mist and Fog 35 1.9 34 1.2 95 95 Calm 30.3 1026 4 6.43736 0 0
10:15 pm 22:15 Clear with Mist and Fog 35 1.8 34 1.2 96 96 N 3 6 30.3 1026 4 6.43736 0 0
10:35 pm 22:35 Clear with Mist and Fog 37 2.5 34 1.2 91 91 NNE 3 6 30.3 1026 7 11.26538 0 0
10:55 pm 22:55 Clear with Mist and Fog 36 2 34 0.9 93 93 Calm 30.3 1026 5 8.0467 0 0
11:15 pm 23:15 Clear with Mist and Fog 36 2.2 34 1.1 93 93 N 3 6 30.3 1026 5 8.0467 0 0
11:35 pm 23:35 Clear with Mist and Fog 36 2 34 0.9 93 93 NNE 5 7 30.3 1026 5 8.0467 0 0
11:55 pm 23:55 Clear with Mist and Fog 35 1.9 33 0.8 93 93 N 3 6 30.3 1026 5 8.0467 0 0

Powered by AerisWeather